Погода в Магазинке

Россия / Республика Крым     45°51′30″N   34°03′05″E
темп.,
°C
ветер,
м/с
пор.,
м/с
влажн.,
%
обл.,
%
осадки,
мм/ч
давл.,
гПа
погр.,
м
2 марта, вт
вт200:00+1с23820 0.0 103061
03:000с23850 0.0 103155
06:00−1сз12830 0.0 103021
09:00+2зсз23690 0.0 1031245
12:00+4зсз455749 0.0 10301091
15:00+6з675241 0.0 10281066
18:00+4з7106512 0.0 1026758
21:00+2зюз6127744 0.0 1025511
3 марта, ср
ср300:00+3зюз8158328 0.0 1023494
03:00+4зсз6118458 0.0 1023617
06:00+3сз5107782 0.0 1023754
09:00+4ссз6107374 0.0 1025784
12:00+6ссз67570 0.0 1026886
15:00+8ссз57440 0.0 10271311
18:00+7сз34490 0.0 1027182
21:00+4з34720 0.0 102881
4 марта, чт
чт400:00+3зюз34790 0.0 102853
03:00+2зюз34800 0.0 102760
06:00+1юз34820 0.0 102567
09:00+4юз47720 0.0 1025274
12:00+9юз67500 0.0 10231081
15:00+10юз78490 0.0 10211121
18:00+7юз711610 0.0 1019708
21:00+5юз7147511 0.0 1019538
5 марта, пт
пт500:00+5юз8157626 0.0 1018515
03:00+4юз7158013 0.0 1017476
06:00+4юз614860 0.0 1016421
09:00+6юз7137740 0.0 1016450
12:00+11юз8126074 0.0 1015676
15:00+12юз9125453 0.0 1013836
18:00+9юз7127118 0.0 1012539
21:00+7юз8158450 0.0 1013459
6 марта, сб
сб600:00+7юз8149063 0.0 1013439
03:00+7юз6109374 0.0 1012272
06:00+6юз4894100 0.0 1012164
09:00+6ссв4687100 0.0 1013258
12:00+7с5677100 0.0 1014597
15:00+2с71094100 0.6 1016504
18:00+4с5953100 1.1 10191362
21:00+2ссз6958100 1.3 1022930